Location: Foligno
(42.9600°N, 12.7050°E)
Time: 08:07:52
(UTC+02:00)

ISS - Pass Details

Date: 24 May 2018
Orbit: 402 x 407 km, 51.6° (Epoch: 23 May)

Event Time Altitude Azimuth Distance (km) Brightness Sun altitude
Rises 21:14:05 0° 240° (WSW) 2,311 0.3 -6.9°
Reaches altitude 10° 21:16:09 10° 242° (WSW) 1,454 -0.7 -7.2°
Maximum altitude 21:19:24 75° 328° (NNW) 422 -3.6 -7.6°
Drops below altitude 10° 21:22:41 10° 54° (NE) 1,459 -1.2 -8.1°
Sets 21:24:46 0° 56° (ENE) 2,320 -0.2 -8.4°
